NDU5739 KGRI-KBBW

Flight info

Callsign NDU5739
Flight time 0h 28m
Altitude 6000
Route PECKS BECOL
Aircraft BE58/L-SDFGRY/C

Departure

Time 2026-05-09 01:46
Airport Central Nebraska Regional Airport (KGRI)

Arrival

Time 2026-05-09 02:15
Airport Broken Bow Municipal Airport (KBBW)
Time Latitude Longitude Altitude Speed Heading
2026-05-09 01:28 40.97155 -98.31783 1844 ft 0 kts 106°
2026-05-09 01:39 40.97151 -98.31762 1844 ft 10 kts 108°
2026-05-09 01:39 40.97109 -98.31681 1844 ft 10 kts 162°
2026-05-09 01:39 40.97039 -98.31676 1845 ft 14 kts 179°
2026-05-09 01:40 40.96893 -98.31686 1845 ft 8 kts 180°
2026-05-09 01:40 40.96830 -98.31686 1845 ft 9 kts 178°
2026-05-09 01:40 40.96745 -98.31686 1845 ft 16 kts 180°
2026-05-09 01:40 40.96625 -98.31686 1845 ft 19 kts 179°
2026-05-09 01:41 40.96501 -98.31690 1845 ft 17 kts 180°
2026-05-09 01:41 40.96321 -98.31690 1845 ft 33 kts 181°
2026-05-09 01:41 40.96110 -98.31690 1844 ft 27 kts 180°
2026-05-09 01:41 40.95940 -98.31693 1844 ft 22 kts 181°
2026-05-09 01:42 40.95830 -98.31687 1844 ft 1 kts 160°
2026-05-09 01:42 40.95810 -98.31669 1844 ft 5 kts 120°
2026-05-09 01:42 40.95804 -98.31634 1844 ft 3 kts 92°
2026-05-09 01:42 40.95803 -98.31599 1844 ft 6 kts 90°
2026-05-09 01:43 40.95803 -98.31595 1844 ft 0 kts 90°
2026-05-09 01:44 40.95803 -98.31594 1844 ft 0 kts 90°
2026-05-09 01:45 40.95803 -98.31593 1844 ft 0 kts 90°
2026-05-09 01:45 40.95803 -98.31573 1844 ft 8 kts 89°
2026-05-09 01:45 40.95831 -98.31495 1843 ft 14 kts 20°
2026-05-09 01:45 40.96121 -98.31489 1844 ft 76 kts
2026-05-09 01:46 40.96824 -98.31470 1861 ft 120 kts
2026-05-09 01:46 40.97596 -98.31132 2159 ft 119 kts 48°
2026-05-09 01:46 40.98170 -98.30333 2476 ft 121 kts 48°
2026-05-09 01:46 40.98761 -98.29538 2791 ft 122 kts 49°
2026-05-09 01:47 40.99353 -98.28738 3104 ft 122 kts 49°
2026-05-09 01:47 40.99947 -98.27932 3408 ft 122 kts 49°
2026-05-09 01:47 41.00542 -98.27123 3705 ft 123 kts 49°
2026-05-09 01:47 41.01141 -98.26311 3988 ft 124 kts 49°
2026-05-09 01:48 41.01741 -98.25498 4268 ft 124 kts 47°
2026-05-09 01:48 41.02517 -98.25138 4530 ft 125 kts 343°
2026-05-09 01:48 41.03261 -98.25710 4776 ft 125 kts 308°
2026-05-09 01:48 41.03601 -98.26725 5019 ft 121 kts 279°
2026-05-09 01:49 41.03828 -98.27808 5249 ft 123 kts 283°
2026-05-09 01:49 41.04069 -98.28894 5473 ft 123 kts 283°
2026-05-09 01:49 41.04316 -98.29981 5681 ft 123 kts 283°
2026-05-09 01:49 41.04567 -98.31071 5881 ft 124 kts 284°
2026-05-09 01:50 41.04820 -98.32165 6062 ft 124 kts 284°
2026-05-09 01:50 41.05076 -98.33263 6239 ft 125 kts 284°
2026-05-09 01:50 41.05333 -98.34370 6309 ft 133 kts 284°
2026-05-09 01:50 41.05617 -98.35582 6318 ft 142 kts 284°
2026-05-09 01:51 41.05916 -98.36862 6318 ft 149 kts 284°
2026-05-09 01:51 41.06227 -98.38203 6280 ft 155 kts 284°
2026-05-09 01:51 41.06547 -98.39574 6277 ft 157 kts 284°
2026-05-09 01:51 41.06869 -98.40958 6279 ft 158 kts 284°
2026-05-09 01:52 41.07193 -98.42350 6276 ft 158 kts 284°
2026-05-09 01:52 41.07517 -98.43744 6277 ft 158 kts 284°
2026-05-09 01:52 41.07836 -98.45120 6277 ft 159 kts 284°
2026-05-09 01:52 41.08161 -98.46520 6275 ft 159 kts 284°
2026-05-09 01:53 41.08486 -98.47922 6276 ft 159 kts 284°
2026-05-09 01:53 41.08811 -98.49325 6277 ft 159 kts 284°
2026-05-09 01:53 41.09136 -98.50724 6276 ft 159 kts 284°
2026-05-09 01:53 41.09459 -98.52122 6276 ft 159 kts 284°
2026-05-09 01:54 41.09783 -98.53522 6277 ft 159 kts 284°
2026-05-09 01:54 41.10108 -98.54925 6277 ft 159 kts 284°
2026-05-09 01:54 41.10431 -98.56328 6276 ft 159 kts 284°
2026-05-09 01:54 41.10750 -98.57708 6276 ft 159 kts 284°
2026-05-09 01:55 41.11073 -98.59105 6276 ft 159 kts 284°
2026-05-09 01:55 41.11395 -98.60503 6276 ft 159 kts 284°
2026-05-09 01:55 41.11718 -98.61904 6277 ft 159 kts 284°
2026-05-09 01:55 41.12041 -98.63306 6276 ft 159 kts 284°
2026-05-09 01:56 41.12363 -98.64705 6276 ft 159 kts 284°
2026-05-09 01:56 41.12685 -98.66108 6276 ft 159 kts 284°
2026-05-09 01:56 41.13008 -98.67509 6276 ft 159 kts 284°
2026-05-09 01:56 41.13330 -98.68910 6277 ft 159 kts 284°
2026-05-09 01:57 41.13647 -98.70292 6276 ft 159 kts 284°
2026-05-09 01:57 41.13970 -98.71697 6276 ft 159 kts 284°
2026-05-09 01:57 41.14291 -98.73099 6277 ft 159 kts 284°
2026-05-09 01:57 41.14613 -98.74503 6277 ft 159 kts 284°
2026-05-09 01:58 41.14935 -98.75910 6277 ft 159 kts 284°
2026-05-09 01:58 41.15257 -98.77316 6277 ft 159 kts 284°
2026-05-09 01:58 41.15579 -98.78724 6278 ft 160 kts 284°
2026-05-09 01:58 41.15897 -98.80116 6276 ft 160 kts 284°
2026-05-09 01:59 41.16218 -98.81521 6276 ft 159 kts 284°
2026-05-09 01:59 41.16539 -98.82926 6276 ft 159 kts 284°
2026-05-09 01:59 41.16859 -98.84330 6275 ft 159 kts 284°
2026-05-09 01:59 41.17180 -98.85736 6275 ft 159 kts 284°
2026-05-09 02:00 41.17501 -98.87145 6276 ft 160 kts 284°
2026-05-09 02:00 41.17822 -98.88555 6276 ft 160 kts 284°
2026-05-09 02:00 41.18143 -98.89964 6276 ft 160 kts 284°
2026-05-09 02:00 41.18460 -98.91357 6276 ft 159 kts 284°
2026-05-09 02:01 41.18780 -98.92764 6276 ft 159 kts 284°
2026-05-09 02:01 41.19100 -98.94174 6275 ft 159 kts 284°
2026-05-09 02:01 41.19419 -98.95579 6275 ft 159 kts 284°
2026-05-09 02:01 41.19738 -98.96986 6274 ft 159 kts 284°
2026-05-09 02:02 41.20057 -98.98393 6275 ft 159 kts 284°
2026-05-09 02:02 41.20376 -98.99800 6275 ft 159 kts 284°
2026-05-09 02:02 41.20695 -99.01208 6275 ft 159 kts 284°
2026-05-09 02:02 41.21014 -99.02618 6275 ft 159 kts 284°
2026-05-09 02:03 41.21333 -99.04028 6276 ft 160 kts 284°
2026-05-09 02:03 41.21648 -99.05422 6276 ft 160 kts 284°
2026-05-09 02:03 41.21967 -99.06835 6275 ft 160 kts 284°
2026-05-09 02:03 41.22286 -99.08243 6275 ft 159 kts 284°
2026-05-09 02:04 41.22603 -99.09653 6275 ft 159 kts 284°
2026-05-09 02:04 41.22922 -99.11067 6275 ft 159 kts 284°
2026-05-09 02:04 41.23240 -99.12476 6275 ft 159 kts 284°
2026-05-09 02:04 41.23557 -99.13887 6276 ft 160 kts 284°
2026-05-09 02:05 41.23902 -99.15288 6276 ft 160 kts 289°
2026-05-09 02:05 41.24298 -99.16669 6276 ft 160 kts 288°
2026-05-09 02:05 41.24677 -99.18037 6276 ft 160 kts 288°
2026-05-09 02:05 41.25063 -99.19422 6277 ft 160 kts 288°
2026-05-09 02:06 41.25453 -99.20811 6276 ft 160 kts 288°
2026-05-09 02:06 41.25841 -99.22195 6276 ft 160 kts 288°
2026-05-09 02:06 41.26229 -99.23581 6276 ft 160 kts 288°
2026-05-09 02:07 41.27005 -99.26352 6275 ft 160 kts 288°
2026-05-09 02:07 41.27393 -99.27738 6275 ft 160 kts 288°
2026-05-09 02:07 41.27780 -99.29121 6275 ft 160 kts 288°
2026-05-09 02:07 41.28161 -99.30484 6274 ft 160 kts 288°
2026-05-09 02:08 41.28547 -99.31867 6274 ft 160 kts 288°
2026-05-09 02:08 41.28933 -99.33251 6273 ft 159 kts 288°
2026-05-09 02:08 41.29319 -99.34632 6273 ft 160 kts 288°
2026-05-09 02:08 41.29698 -99.36016 6273 ft 159 kts 287°
2026-05-09 02:09 41.30073 -99.37408 6273 ft 160 kts 287°
2026-05-09 02:09 41.30448 -99.38800 6274 ft 160 kts 287°
2026-05-09 02:09 41.30823 -99.40189 6275 ft 160 kts 287°
2026-05-09 02:09 41.31185 -99.41525 5975 ft 158 kts 287°
2026-05-09 02:10 41.31558 -99.42910 5616 ft 159 kts 287°
2026-05-09 02:10 41.31928 -99.44285 5296 ft 158 kts 287°
2026-05-09 02:10 41.32297 -99.45654 4990 ft 157 kts 287°
2026-05-09 02:10 41.32664 -99.47019 4693 ft 156 kts 287°
2026-05-09 02:11 41.33024 -99.48355 4566 ft 146 kts 287°
2026-05-09 02:11 41.33351 -99.49576 4555 ft 134 kts 287°
2026-05-09 02:11 41.33653 -99.50702 4551 ft 125 kts 286°
2026-05-09 02:11 41.33933 -99.51746 4548 ft 118 kts 286°
2026-05-09 02:12 41.34200 -99.52751 4559 ft 117 kts 285°
2026-05-09 02:12 41.34497 -99.53866 4587 ft 138 kts 287°
2026-05-09 02:12 41.34841 -99.55133 4595 ft 152 kts 287°
2026-05-09 02:12 41.35219 -99.56529 4452 ft 169 kts 289°
2026-05-09 02:13 41.35900 -99.57873 4222 ft 182 kts 317°
2026-05-09 02:13 41.36957 -99.58793 3970 ft 182 kts 328°
2026-05-09 02:13 41.38039 -99.59659 3720 ft 179 kts 328°
2026-05-09 02:13 41.39066 -99.60493 3483 ft 173 kts 327°
2026-05-09 02:14 41.40081 -99.61316 3253 ft 169 kts 328°
2026-05-09 02:14 41.41081 -99.62129 3030 ft 166 kts 327°
2026-05-09 02:14 41.42016 -99.62878 2785 ft 147 kts 328°
2026-05-09 02:14 41.42819 -99.63549 2587 ft 129 kts 327°
2026-05-09 02:15 41.43523 -99.64121 2525 ft 105 kts 326°
2026-05-09 02:15 41.43845 -99.64393 2539 ft 19 kts 330°
2026-05-09 02:15 41.43854 -99.64365 2531 ft 11 kts 157°
2026-05-09 02:15 41.43701 -99.64263 2532 ft 34 kts 152°
2026-05-09 02:16 41.43501 -99.64105 2523 ft 23 kts 146°
2026-05-09 02:16 41.43427 -99.64044 2524 ft 14 kts 148°
2026-05-09 02:16 41.43302 -99.63943 2523 ft 26 kts 147°
2026-05-09 02:16 41.43178 -99.63826 2524 ft 16 kts 120°
2026-05-09 02:17 41.43208 -99.63737 2522 ft 14 kts 41°
2026-05-09 02:17 41.43229 -99.63713 2524 ft 0 kts 27°